| time (UTC) | temp F | wind direction | speed MPH | gust MPH | rain 1hr in | rain 24hr in | rain mn in | humidity % | barometer mb |
| 20260510230346 | 73 | 69 | 0.0 | 1.0 | 0.00 | 0.00 | 0.00 | 68 | 1025.2 |
| 20260510225844 | 72 | 101 | 1.0 | 2.0 | 0.00 | 0.00 | 0.00 | 69 | 1025.1 |
| 20260510225339 | 72 | 146 | 4.0 | 5.0 | 0.00 | 0.00 | 0.00 | 69 | 1025.0 |
| 20260510224835 | 72 | 104 | 1.0 | 2.0 | 0.00 | 0.00 | 0.00 | 69 | 1025.2 |
| 20260510224331 | 73 | 146 | 3.0 | 5.0 | 0.00 | 0.00 | 0.00 | 69 | 1024.8 |
| 20260510223828 | 73 | 106 | 1.0 | 3.0 | 0.00 | 0.00 | 0.00 | 69 | 1024.9 |
| 20260510223326 | 73 | 117 | 2.0 | 3.0 | 0.00 | 0.00 | 0.00 | 66 | 1025.0 |
| 20260510222823 | 73 | 124 | 2.0 | 2.0 | 0.00 | 0.00 | 0.00 | 66 | 1025.1 |
| 20260510222321 | 74 | 114 | 2.0 | 2.0 | 0.00 | 0.00 | 0.00 | 66 | 1025.2 |
| 20260510221820 | 74 | 111 | 1.0 | 2.0 | 0.00 | 0.00 | 0.00 | 65 | 1025.1 |
| 20260510221318 | 74 | 136 | 3.0 | 5.0 | 0.00 | 0.00 | 0.00 | 64 | 1025.2 |
| 20260510220814 | 75 | 131 | 4.0 | 6.0 | 0.00 | 0.00 | 0.00 | 63 | 1025.1 |
| 20260510220310 | 77 | 42 | 0.0 | 1.0 | 0.00 | 0.00 | 0.00 | 60 | 1024.9 |
| 20260510215807 | 77 | 72 | 0.0 | 3.0 | 0.00 | 0.00 | 0.00 | 57 | 1024.9 |
| 20260510215306 | 78 | 114 | 4.0 | 6.0 | 0.00 | 0.00 | 0.00 | 58 | 1024.9 |
| 20260510214802 | 79 | 27 | 0.0 | 2.0 | 0.00 | 0.00 | 0.00 | 53 | 1024.6 |
| 20260510214258 | 79 | 100 | 6.0 | 7.0 | 0.00 | 0.00 | 0.00 | 59 | 1024.9 |
| 20260510213755 | 77 | 86 | 7.0 | 10.0 | 0.00 | 0.00 | 0.00 | 55 | 1024.8 |
| 20260510213252 | 78 | 352 | 2.0 | 5.0 | 0.00 | 0.00 | 0.00 | 52 | 1024.7 |
| 20260510212748 | 78 | 136 | 3.0 | 3.0 | 0.00 | 0.00 | 0.00 | 59 | 1024.7 |
| 20260510212246 | 77 | 133 | 2.0 | 6.0 | 0.00 | 0.00 | 0.00 | 61 | 1024.6 |
| 20260510211742 | 75 | 89 | 1.0 | 2.0 | 0.00 | 0.00 | 0.00 | 59 | 1024.6 |
| 20260510211237 | 76 | 147 | 5.0 | 5.0 | 0.00 | 0.00 | 0.00 | 63 | 1024.6 |
| 20260510210734 | 76 | 117 | 3.0 | 3.0 | 0.00 | 0.00 | 0.00 | 61 | 1024.4 |
| 20260510210229 | 79 | 23 | 2.0 | 2.0 | 0.00 | 0.00 | 0.00 | 52 | 1024.6 |
| 20260510205728 | 78 | 129 | 6.0 | 10.0 | 0.00 | 0.00 | 0.00 | 50 | 1024.4 |
| 20260510205224 | 79 | 28 | 1.0 | 6.0 | 0.00 | 0.00 | 0.00 | 50 | 1024.3 |
| 20260510204720 | 80 | 93 | 0.0 | 1.0 | 0.00 | 0.00 | 0.00 | 51 | 1024.5 |
| 20260510204217 | 81 | 55 | 2.0 | 2.0 | 0.00 | 0.00 | 0.00 | 47 | 1024.3 |
| 20260510203714 | 80 | 72 | 1.0 | 7.0 | 0.00 | 0.00 | 0.00 | 50 | 1024.5 |
| 20260510203212 | 80 | 175 | 4.0 | 9.0 | 0.00 | 0.00 | 0.00 | 50 | 1024.4 |
| 20260510202711 | 81 | 145 | 5.0 | 6.0 | 0.00 | 0.00 | 0.00 | 55 | 1024.3 |
| 20260510202206 | 80 | 59 | 3.0 | 3.0 | 0.00 | 0.00 | 0.00 | 48 | 1024.5 |
| 20260510201704 | 78 | 144 | 2.0 | 3.0 | 0.00 | 0.00 | 0.00 | 59 | 1024.6 |
| 20260510201201 | 78 | 72 | 1.0 | 5.0 | 0.00 | 0.00 | 0.00 | 53 | 1024.7 |
| 20260510200657 | 78 | 6 | 1.0 | 6.0 | 0.00 | 0.00 | 0.00 | 50 | 1024.4 |
| 20260510200155 | 78 | 116 | 2.0 | 2.0 | 0.00 | 0.00 | 0.00 | 60 | 1024.6 |
| 20260510195652 | 78 | 121 | 1.0 | 2.0 | 0.00 | 0.00 | 0.00 | 56 | 1024.7 |
| 20260510195148 | 75 | 128 | 4.0 | 5.0 | 0.00 | 0.00 | 0.00 | 62 | 1024.9 |
| 20260510194648 | 76 | 130 | 3.0 | 3.0 | 0.00 | 0.00 | 0.00 | 63 | 1024.8 |
| 20260510194144 | 76 | 130 | 3.0 | 3.0 | 0.00 | 0.00 | 0.00 | 61 | 1025.0 |
| 20260510193639 | 75 | 122 | 3.0 | 3.0 | 0.00 | 0.00 | 0.00 | 62 | 1025.2 |
| 20260510193135 | 75 | 140 | 3.0 | 3.0 | 0.00 | 0.00 | 0.00 | 62 | 1025.0 |
| 20260510192630 | 77 | 160 | 4.0 | 6.0 | 0.00 | 0.00 | 0.00 | 64 | 1025.0 |
| 20260510192126 | 75 | 99 | 3.0 | 5.0 | 0.00 | 0.00 | 0.00 | 55 | 1025.0 |
| 20260510191623 | 76 | 149 | 4.0 | 6.0 | 0.00 | 0.00 | 0.00 | 60 | 1025.2 |
| 20260510191119 | 74 | 99 | 1.0 | 2.0 | 0.00 | 0.00 | 0.00 | 64 | 1025.0 |
| 20260510190617 | 74 | 31 | 1.0 | 5.0 | 0.00 | 0.00 | 0.00 | 66 | 1025.1 |
| 20260510190114 | 76 | 75 | 1.0 | 6.0 | 0.00 | 0.00 | 0.00 | 62 | 1025.3 |
| 20260510185610 | 76 | 240 | 3.0 | 6.0 | 0.00 | 0.00 | 0.00 | 48 | 1025.1 |
| 20260510185108 | 75 | 137 | 3.0 | 5.0 | 0.00 | 0.00 | 0.00 | 58 | 1025.1 |
| 20260510184606 | 79 | 149 | 3.0 | 6.0 | 0.00 | 0.00 | 0.00 | 50 | 1025.2 |
| 20260510184101 | 80 | 145 | 9.0 | 13.0 | 0.00 | 0.00 | 0.00 | 45 | 1025.1 |
| 20260510183556 | 81 | 131 | 3.0 | 6.0 | 0.00 | 0.00 | 0.00 | 45 | 1024.9 |
| 20260510183052 | 81 | 97 | 5.0 | 6.0 | 0.00 | 0.00 | 0.00 | 43 | 1025.2 |
| 20260510182549 | 80 | 194 | 3.0 | 6.0 | 0.00 | 0.00 | 0.00 | 49 | 1024.9 |
| 20260510182044 | 81 | 97 | 3.0 | 7.0 | 0.00 | 0.00 | 0.00 | 50 | 1024.9 |
| 20260510181542 | 82 | 115 | 5.0 | 7.0 | 0.00 | 0.00 | 0.00 | 41 | 1024.7 |
| 20260510181038 | 81 | 91 | 3.0 | 13.0 | 0.00 | 0.00 | 0.00 | 41 | 1024.6 |
| 20260510180535 | 84 | 191 | 4.0 | 6.0 | 0.00 | 0.00 | 0.00 | 49 | 1024.7 |
| 20260510180033 | 81 | 79 | 0.0 | 2.0 | 0.00 | 0.00 | 0.00 | 43 | 1024.6 |
| 20260510175533 | 82 | 58 | 0.0 | 2.0 | 0.00 | 0.00 | 0.00 | 47 | 1024.8 |
| 20260510175029 | 83 | 68 | 3.0 | 6.0 | 0.00 | 0.00 | 0.00 | 42 | 1024.7 |
| 20260510174528 | 81 | 81 | 1.0 | 5.0 | 0.00 | 0.00 | 0.00 | 47 | 1024.6 |
| 20260510174024 | 82 | 33 | 3.0 | 3.0 | 0.00 | 0.00 | 0.00 | 43 | 1024.5 |
| 20260510173519 | 82 | 297 | 8.0 | 14.0 | 0.00 | 0.00 | 0.00 | 43 | 1024.6 |
| 20260510173016 | 82 | 122 | 5.0 | 7.0 | 0.00 | 0.00 | 0.00 | 43 | 1024.7 |
| 20260510172512 | 82 | 89 | 3.0 | 5.0 | 0.00 | 0.00 | 0.00 | 47 | 1024.6 |
| 20260510172009 | 81 | 124 | 3.0 | 8.0 | 0.00 | 0.00 | 0.00 | 44 | 1024.6 |
| 20260510171506 | 82 | 170 | 2.0 | 2.0 | 0.00 | 0.00 | 0.00 | 43 | 1024.6 |
| 20260510171002 | 81 | 136 | 2.0 | 6.0 | 0.00 | 0.00 | 0.00 | 48 | 1024.7 |
| 20260510170459 | 81 | 69 | 1.0 | 3.0 | 0.00 | 0.00 | 0.00 | 49 | 1024.9 |
| 20260510165955 | 82 | 97 | 6.0 | 13.0 | 0.00 | 0.00 | 0.00 | 44 | 1024.7 |
| 20260510165451 | 84 | 137 | 2.0 | 7.0 | 0.00 | 0.00 | 0.00 | 48 | 1024.9 |
| 20260510164948 | 81 | 192 | 1.0 | 2.0 | 0.00 | 0.00 | 0.00 | 52 | 1024.8 |
| 20260510164445 | 80 | 350 | 4.0 | 7.0 | 0.00 | 0.00 | 0.00 | 44 | 1025.1 |
| 20260510163940 | 81 | 22 | 3.0 | 6.0 | 0.00 | 0.00 | 0.00 | 44 | 1024.9 |
| 20260510163436 | 82 | 113 | 2.0 | 5.0 | 0.00 | 0.00 | 0.00 | 52 | 1024.9 |
| 20260510162931 | 80 | 40 | 1.0 | 2.0 | 0.00 | 0.00 | 0.00 | 44 | 1024.8 |
| 20260510162428 | 80 | 32 | 1.0 | 7.0 | 0.00 | 0.00 | 0.00 | 45 | 1025.0 |
| 20260510161924 | 82 | 305 | 3.0 | 6.0 | 0.00 | 0.00 | 0.00 | 44 | 1025.2 |
| 20260510161420 | 80 | 35 | 2.0 | 3.0 | 0.00 | 0.00 | 0.00 | 48 | 1025.4 |
| 20260510160918 | 78 | 236 | 4.0 | 7.0 | 0.00 | 0.00 | 0.00 | 48 | 1025.4 |
| 20260510160414 | 80 | 75 | 2.0 | 6.0 | 0.00 | 0.00 | 0.00 | 55 | 1025.5 |
| 20260510155908 | 81 | 289 | 2.0 | 2.0 | 0.00 | 0.00 | 0.00 | 60 | 1025.2 |
| 20260510155405 | 77 | 81 | 1.0 | 2.0 | 0.00 | 0.00 | 0.00 | 56 | 1025.4 |
| 20260510154901 | 78 | 39 | 3.0 | 3.0 | 0.00 | 0.00 | 0.00 | 50 | 1025.3 |
| 20260510154357 | 77 | 106 | 4.0 | 9.0 | 0.00 | 0.00 | 0.00 | 54 | 1025.6 |
| 20260510153851 | 78 | 107 | 2.0 | 3.0 | 0.00 | 0.00 | 0.00 | 64 | 1025.7 |
| 20260510153347 | 74 | 133 | 3.0 | 3.0 | 0.00 | 0.00 | 0.00 | 60 | 1025.6 |
| 20260510152844 | 72 | 131 | 4.0 | 6.0 | 0.00 | 0.00 | 0.00 | 77 | 1025.7 |
| 20260510152342 | 72 | 147 | 3.0 | 5.0 | 0.00 | 0.00 | 0.00 | 78 | 1025.9 |
| 20260510151837 | 69 | 114 | 2.0 | 3.0 | 0.00 | 0.00 | 0.00 | 80 | 1025.6 |
| 20260510151335 | 70 | 123 | 3.0 | 3.0 | 0.00 | 0.00 | 0.00 | 81 | 1025.6 |
| 20260510150831 | 70 | 132 | 3.0 | 5.0 | 0.00 | 0.00 | 0.00 | 81 | 1025.7 |
| 20260510150327 | 68 | 135 | 3.0 | 5.0 | 0.00 | 0.00 | 0.00 | 83 | 1025.7 |
| 20260510145823 | 68 | 145 | 4.0 | 5.0 | 0.00 | 0.00 | 0.00 | 82 | 1025.7 |
| 20260510145320 | 69 | 136 | 3.0 | 5.0 | 0.00 | 0.00 | 0.00 | 82 | 1025.8 |
| 20260510144816 | 67 | 150 | 3.0 | 3.0 | 0.00 | 0.00 | 0.00 | 85 | 1025.9 |
| 20260510144313 | 65 | 132 | 3.0 | 3.0 | 0.00 | 0.00 | 0.00 | 87 | 1026.0 |
| 20260510143813 | 67 | 139 | 3.0 | 3.0 | 0.00 | 0.00 | 0.00 | 87 | 1025.8 |
| 20260510143310 | 66 | 81 | 3.0 | 3.0 | 0.00 | 0.00 | 0.00 | 90 | 1025.9 |
| 20260510142806 | 63 | 134 | 3.0 | 3.0 | 0.00 | 0.00 | 0.00 | 92 | 1025.8 |
| 20260510142306 | 64 | 145 | 3.0 | 3.0 | 0.00 | 0.00 | 0.00 | 92 | 1025.9 |
| 20260510141800 | 64 | 145 | 2.0 | 3.0 | 0.00 | 0.00 | 0.00 | 90 | 1025.9 |
| 20260510141258 | 64 | 135 | 3.0 | 3.0 | 0.00 | 0.00 | 0.00 | 90 | 1025.9 |
| 20260510140754 | 63 | 138 | 1.0 | 3.0 | 0.00 | 0.00 | 0.00 | 92 | 1026.0 |
| 20260510140250 | 62 | 87 | 0.0 | 2.0 | 0.00 | 0.00 | 0.00 | 93 | 1026.0 |
| 20260510135744 | 61 | 128 | 3.0 | 3.0 | 0.00 | 0.00 | 0.00 | 93 | 1026.1 |
| 20260510135239 | 60 | 123 | 1.0 | 2.0 | 0.00 | 0.00 | 0.00 | 94 | 1026.2 |
| 20260510134737 | 60 | 131 | 2.0 | 2.0 | 0.00 | 0.00 | 0.00 | 94 | 1026.0 |
| 20260510134234 | 59 | 130 | 2.0 | 2.0 | 0.00 | 0.00 | 0.00 | 95 | 1026.1 |
| 20260510133730 | 58 | 116 | 2.0 | 2.0 | 0.00 | 0.00 | 0.00 | 98 | 1026.1 |
| 20260510133226 | 57 | 113 | 1.0 | 1.0 | 0.00 | 0.00 | 0.00 | 99 | 1025.9 |
| 20260510132722 | 56 | 89 | 1.0 | 1.0 | 0.00 | 0.00 | 0.00 | 99 | 1025.8 |
| 20260510132220 | 57 | 74 | 0.0 | 1.0 | 0.00 | 0.00 | 0.00 | 99 | 1026.0 |
| 20260510131717 | 57 | 58 | 0.0 | 0.0 | 0.00 | 0.00 | 0.00 | 99 | 1026.0 |
| 20260510131215 | 56 | 56 | 0.0 | 0.0 | 0.00 | 0.00 | 0.00 | 99 | 1026.1 |
| 20260510130710 | 53 | 37 | 0.0 | 0.0 | 0.00 | 0.00 | 0.00 | 99 | 1026.3 |
| 20260510130208 | 53 | 316 | 0.0 | 0.0 | 0.00 | 0.00 | 0.00 | 99 | 1026.2 |
| 20260510125704 | 53 | 349 | 0.0 | 0.0 | 0.00 | 0.00 | 0.00 | 99 | 1026.6 |
| 20260510125200 | 53 | 359 | 0.0 | 0.0 | 0.00 | 0.00 | 0.00 | 99 | 1026.3 |
| 20260510124657 | 52 | 29 | 0.0 | 0.0 | 0.00 | 0.00 | 0.00 | 99 | 1026.2 |
| 20260510124155 | 52 | 24 | 0.0 | 0.0 | 0.00 | 0.00 | 0.00 | 99 | 1026.3 |
| 20260510123650 | 52 | 321 | 0.0 | 1.0 | 0.00 | 0.00 | 0.00 | 99 | 1026.4 |
| 20260510123146 | 52 | 17 | 0.0 | 0.0 | 0.00 | 0.00 | 0.00 | 99 | 1026.6 |
| 20260510122643 | 52 | 323 | 0.0 | 0.0 | 0.00 | 0.00 | 0.00 | 99 | 1026.7 |
| 20260510122138 | 52 | 24 | 0.0 | 0.0 | 0.00 | 0.00 | 0.00 | 99 | 1026.4 |
| 20260510121635 | 52 | 67 | 0.0 | 0.0 | 0.00 | 0.00 | 0.00 | 99 | 1026.6 |
| 20260510121132 | 51 | 55 | 0.0 | 0.0 | 0.00 | 0.00 | 0.00 | 99 | 1026.1 |
| 20260510120630 | 51 | 67 | 0.0 | 0.0 | 0.00 | 0.00 | 0.00 | 99 | 1026.2 |
| 20260510120125 | 51 | 64 | 0.0 | 0.0 | 0.00 | 0.00 | 0.00 | 99 | 1026.3 |
| 20260510115622 | 51 | 61 | 0.0 | 0.0 | 0.00 | 0.00 | 0.00 | 99 | 1026.2 |
| 20260510115120 | 50 | 50 | 0.0 | 0.0 | 0.00 | 0.00 | 0.00 | 99 | 1026.1 |
| 20260510114615 | 50 | 75 | 0.0 | 1.0 | 0.00 | 0.00 | 0.00 | 99 | 1026.0 |
| 20260510114112 | 50 | 68 | 0.0 | 0.0 | 0.00 | 0.00 | 0.00 | 99 | 1025.9 |
| 20260510113608 | 50 | 80 | 0.0 | 0.0 | 0.00 | 0.00 | 0.00 | 99 | 1026.1 |
| 20260510113105 | 50 | 78 | 0.0 | 1.0 | 0.00 | 0.00 | 0.00 | 99 | 1025.8 |
| 20260510112601 | 50 | 64 | 0.0 | 0.0 | 0.00 | 0.00 | 0.00 | 99 | 1025.7 |
| 20260510112058 | 50 | 86 | 0.0 | 1.0 | 0.00 | 0.00 | 0.00 | 99 | 1025.7 |
| 20260510111554 | 50 | 84 | 0.0 | 0.0 | 0.00 | 0.00 | 0.00 | 99 | 1025.7 |
| 20260510111050 | 50 | 69 | 0.0 | 0.0 | 0.00 | 0.00 | 0.00 | 99 | 1025.6 |
| 20260510110546 | 50 | 68 | 0.0 | 0.0 | 0.00 | 0.00 | 0.00 | 99 | 1025.4 |
| 20260510110043 | 49 | 70 | 0.0 | 1.0 | 0.00 | 0.00 | 0.00 | 99 | 1025.4 |
| 20260510105538 | 50 | 71 | 0.0 | 1.0 | 0.00 | 0.00 | 0.00 | 99 | 1025.1 |
| 20260510105033 | 49 | 80 | 0.0 | 1.0 | 0.00 | 0.00 | 0.00 | 99 | 1025.2 |
| 20260510104530 | 50 | 67 | 0.0 | 1.0 | 0.00 | 0.00 | 0.00 | 99 | 1025.0 |
| 20260510104026 | 49 | 76 | 0.0 | 1.0 | 0.00 | 0.00 | 0.00 | 99 | 1025.0 |
| 20260510103524 | 50 | 65 | 0.0 | 1.0 | 0.00 | 0.00 | 0.00 | 99 | 1025.0 |
| 20260510103020 | 50 | 54 | 0.0 | 0.0 | 0.00 | 0.00 | 0.00 | 99 | 1025.0 |
| 20260510102516 | 50 | 76 | 1.0 | 1.0 | 0.00 | 0.00 | 0.00 | 99 | 1025.0 |
| 20260510102012 | 50 | 81 | 0.0 | 1.0 | 0.00 | 0.00 | 0.00 | 99 | 1024.8 |
| 20260510101510 | 50 | 72 | 0.0 | 0.0 | 0.00 | 0.00 | 0.00 | 99 | 1024.8 |
| 20260510101008 | 50 | 79 | 0.0 | 0.0 | 0.00 | 0.00 | 0.00 | 99 | 1024.8 |
| 20260510100504 | 50 | 79 | 0.0 | 0.0 | 0.00 | 0.00 | 0.00 | 99 | 1024.9 |
| 20260510100001 | 50 | 72 | 0.0 | 0.0 | 0.00 | 0.00 | 0.00 | 99 | 1024.7 |
| 20260510095456 | 50 | 75 | 0.0 | 0.0 | 0.00 | 0.00 | 0.00 | 99 | 1024.5 |
| 20260510094956 | 50 | 71 | 0.0 | 1.0 | 0.00 | 0.00 | 0.00 | 99 | 1024.5 |
| 20260510094451 | 50 | 77 | 0.0 | 0.0 | 0.00 | 0.00 | 0.00 | 99 | 1024.2 |
| 20260510093947 | 50 | 68 | 0.0 | 1.0 | 0.00 | 0.00 | 0.00 | 99 | 1024.3 |
| 20260510093442 | 50 | 76 | 1.0 | 1.0 | 0.00 | 0.00 | 0.00 | 99 | 1024.3 |
| 20260510092939 | 50 | 78 | 0.0 | 0.0 | 0.00 | 0.00 | 0.00 | 99 | 1024.2 |
| 20260510092437 | 50 | 76 | 0.0 | 0.0 | 0.00 | 0.00 | 0.00 | 99 | 1024.2 |
| 20260510091936 | 50 | 66 | 0.0 | 0.0 | 0.00 | 0.00 | 0.00 | 99 | 1024.3 |
| 20260510091434 | 50 | 74 | 0.0 | 0.0 | 0.00 | 0.00 | 0.00 | 99 | 1024.2 |
| 20260510090930 | 50 | 79 | 1.0 | 2.0 | 0.00 | 0.00 | 0.00 | 99 | 1024.2 |
| 20260510090426 | 50 | 70 | 0.0 | 0.0 | 0.00 | 0.00 | 0.00 | 99 | 1024.0 |
| 20260510085922 | 50 | 67 | 0.0 | 0.0 | 0.00 | 0.00 | 0.00 | 99 | 1023.9 |
| 20260510085418 | 50 | 65 | 1.0 | 1.0 | 0.00 | 0.00 | 0.00 | 99 | 1024.0 |
| 20260510084913 | 50 | 51 | 0.0 | 0.0 | 0.00 | 0.00 | 0.00 | 99 | 1024.0 |
| 20260510084411 | 50 | 56 | 0.0 | 0.0 | 0.00 | 0.00 | 0.00 | 99 | 1024.0 |
| 20260510083907 | 50 | 66 | 0.0 | 0.0 | 0.00 | 0.00 | 0.00 | 99 | 1024.0 |
| 20260510083404 | 50 | 71 | 0.0 | 0.0 | 0.00 | 0.00 | 0.00 | 99 | 1023.6 |
| 20260510082859 | 51 | 61 | 0.0 | 0.0 | 0.00 | 0.00 | 0.00 | 99 | 1023.8 |
| 20260510082357 | 51 | 68 | 0.0 | 0.0 | 0.00 | 0.00 | 0.00 | 99 | 1023.9 |
| 20260510081855 | 50 | 91 | 1.0 | 2.0 | 0.00 | 0.00 | 0.00 | 99 | 1023.7 |
| 20260510081351 | 51 | 78 | 0.0 | 1.0 | 0.00 | 0.00 | 0.00 | 99 | 1023.7 |
| 20260510080849 | 51 | 70 | 0.0 | 1.0 | 0.00 | 0.00 | 0.00 | 99 | 1023.8 |
| 20260510080342 | 51 | 73 | 0.0 | 0.0 | 0.00 | 0.00 | 0.00 | 99 | 1023.6 |
| 20260510075840 | 51 | 52 | 0.0 | 0.0 | 0.00 | 0.00 | 0.00 | 99 | 1023.7 |
| 20260510075337 | 51 | 67 | 0.0 | 0.0 | 0.00 | 0.00 | 0.00 | 99 | 1023.7 |
| 20260510074834 | 0 | 0.0 | 0.0 | 0.00 | 0.00 | 0.00 | 1023.5 | ||
| 20260510074331 | 0 | 0.0 | 0.0 | 0.00 | 0.00 | 0.00 | 1023.7 | ||
| 20260510073827 | 0 | 0.0 | 0.0 | 0.00 | 0.00 | 0.00 | 1023.6 | ||
| 20260510073317 | 0 | 0.0 | 0.0 | 0.00 | 0.00 | 0.00 | 1023.6 | ||
| 20260510072813 | 0 | 0.0 | 0.0 | 0.00 | 0.00 | 0.00 | 1023.6 | ||
| 20260510072311 | 0 | 0.0 | 0.0 | 0.00 | 0.00 | 0.00 | 1023.7 | ||
| 20260510071807 | 0 | 0.0 | 0.0 | 0.00 | 0.00 | 0.00 | 1023.6 | ||
| 20260510071303 | 0 | 0.0 | 0.0 | 0.00 | 0.00 | 0.00 | 1023.8 | ||
| 20260510070802 | 0 | 0.0 | 0.0 | 0.00 | 0.00 | 0.00 | 1023.7 | ||
| 20260510070258 | 0 | 0.0 | 0.0 | 0.00 | 0.00 | 0.00 | 1023.6 | ||
| 20260510065758 | 0 | 0.0 | 0.0 | 0.00 | 0.00 | 0.00 | 1023.5 | ||
| 20260510065255 | 0 | 0.0 | 0.0 | 0.00 | 0.00 | 0.00 | 1023.4 | ||
| 20260510064752 | 0 | 0.0 | 0.0 | 0.00 | 0.00 | 0.00 | 1023.8 | ||
| 20260510064250 | 0 | 0.0 | 0.0 | 0.00 | 0.00 | 0.00 | 1023.6 | ||
| 20260510063745 | 0 | 0.0 | 0.0 | 0.00 | 0.00 | 0.00 | 1023.4 | ||
| 20260510063242 | 0 | 0.0 | 0.0 | 0.00 | 0.00 | 0.00 | 1023.7 | ||
| 20260510062738 | 0 | 0.0 | 0.0 | 0.00 | 0.00 | 0.00 | 1023.4 | ||
| 20260510062234 | 0 | 0.0 | 0.0 | 0.00 | 0.00 | 0.00 | 1023.6 | ||
| 20260510061730 | 0 | 0.0 | 0.0 | 0.00 | 0.00 | 0.00 | 1023.7 | ||
| 20260510061227 | 0 | 0.0 | 0.0 | 0.00 | 0.00 | 0.00 | 1023.6 | ||
| 20260510060723 | 0 | 0.0 | 0.0 | 0.00 | 0.00 | 0.00 | 1023.5 | ||
| 20260510060220 | 0 | 0.0 | 0.0 | 0.00 | 0.00 | 0.00 | 1023.3 | ||
| 20260510055717 | 0 | 0.0 | 0.0 | 0.00 | 0.00 | 0.00 | 1023.4 | ||
| 20260510055216 | 0 | 0.0 | 0.0 | 0.00 | 0.00 | 0.00 | 1023.5 | ||
| 20260510054715 | 0 | 0.0 | 0.0 | 0.00 | 0.00 | 0.00 | 1023.2 | ||
| 20260510054211 | 0 | 0.0 | 0.0 | 0.00 | 0.00 | 0.00 | 1023.7 | ||
| 20260510053706 | 0 | 0.0 | 0.0 | 0.00 | 0.00 | 0.00 | 1023.4 | ||
| 20260510053202 | 0 | 0.0 | 0.0 | 0.00 | 0.00 | 0.00 | 1023.5 | ||
| 20260510052658 | 0 | 0.0 | 0.0 | 0.00 | 0.00 | 0.00 | 1023.6 | ||
| 20260510052154 | 0 | 0.0 | 0.0 | 0.00 | 0.00 | 0.00 | 1023.5 | ||
| 20260510051650 | 50 | 66 | 0.0 | 0.0 | 0.00 | 0.00 | 0.00 | 99 | 1023.5 |
| 20260510051147 | 50 | 66 | 0.0 | 0.0 | 0.00 | 0.00 | 0.00 | 99 | 1023.5 |
| 20260510050644 | 50 | 66 | 0.0 | 0.0 | 0.00 | 0.00 | 0.00 | 99 | 1023.7 |
| 20260510050142 | 50 | 66 | 0.0 | 0.0 | 0.00 | 0.00 | 0.00 | 99 | 1023.6 |
| 20260510045638 | 50 | 66 | 0.0 | 0.0 | 0.00 | 0.00 | 0.00 | 99 | 1023.7 |
| 20260510045135 | 50 | 66 | 0.0 | 0.0 | 0.00 | 0.00 | 0.00 | 99 | 1023.6 |
| 20260510044631 | 50 | 66 | 0.0 | 0.0 | 0.00 | 0.00 | 0.00 | 99 | 1023.7 |
| 20260510044128 | 50 | 66 | 0.0 | 0.0 | 0.00 | 0.00 | 0.00 | 99 | 1023.8 |
| 20260510043624 | 50 | 66 | 0.0 | 0.0 | 0.00 | 0.00 | 0.00 | 99 | 1023.8 |
| 20260510043121 | 50 | 66 | 0.0 | 0.0 | 0.00 | 0.00 | 0.00 | 99 | 1023.6 |
| 20260510042619 | 50 | 66 | 0.0 | 0.0 | 0.00 | 0.00 | 0.00 | 99 | 1023.7 |
| 20260510042114 | 50 | 66 | 0.0 | 0.0 | 0.00 | 0.00 | 0.00 | 99 | 1023.6 |
| 20260510041612 | 0 | 0.0 | 0.0 | 0.00 | 0.00 | 0.00 | 1023.6 | ||
| 20260510041108 | 0 | 0.0 | 0.0 | 0.00 | 0.00 | 0.00 | 1023.4 | ||
| 20260510040606 | 0 | 0.0 | 0.0 | 0.00 | 0.00 | 0.00 | 1023.6 | ||
| 20260510035558 | 53 | 66 | 0.0 | 0.0 | 0.00 | 0.00 | 0.00 | 99 | 1023.4 |
| 20260510035057 | 53 | 66 | 0.0 | 0.0 | 0.00 | 0.00 | 0.00 | 99 | 1023.5 |
| 20260510034556 | 53 | 66 | 0.0 | 0.0 | 0.00 | 0.00 | 0.00 | 99 | 1023.5 |
| 20260510034053 | 53 | 66 | 0.0 | 0.0 | 0.00 | 0.00 | 0.00 | 99 | 1023.4 |
| 20260510033549 | 53 | 66 | 0.0 | 0.0 | 0.00 | 0.00 | 0.00 | 99 | 1023.3 |
| 20260510033047 | 53 | 66 | 0.0 | 0.0 | 0.00 | 0.00 | 0.00 | 99 | 1023.2 |
| 20260510032543 | 53 | 66 | 0.0 | 0.0 | 0.00 | 0.00 | 0.00 | 99 | 1023.2 |
| 20260510032038 | 53 | 66 | 0.0 | 0.0 | 0.00 | 0.00 | 0.00 | 99 | 1023.2 |
| 20260510031533 | 53 | 66 | 0.0 | 0.0 | 0.00 | 0.00 | 0.00 | 99 | 1023.2 |
| 20260510031029 | 53 | 66 | 0.0 | 0.0 | 0.00 | 0.00 | 0.00 | 99 | 1022.9 |
| 20260510030525 | 53 | 66 | 0.0 | 0.0 | 0.00 | 0.00 | 0.00 | 99 | 1023.1 |
| 20260510030023 | 53 | 66 | 0.0 | 0.0 | 0.00 | 0.00 | 0.00 | 99 | 1023.1 |
| 20260510025519 | 53 | 66 | 0.0 | 0.0 | 0.00 | 0.00 | 0.00 | 99 | 1023.0 |
| 20260510025017 | 53 | 66 | 0.0 | 0.0 | 0.00 | 0.00 | 0.00 | 99 | 1023.0 |
| 20260510024514 | 53 | 66 | 0.0 | 0.0 | 0.00 | 0.00 | 0.00 | 99 | 1022.9 |
| 20260510024009 | 53 | 66 | 0.0 | 0.0 | 0.00 | 0.00 | 0.00 | 99 | 1022.7 |
| 20260510023506 | 54 | 66 | 0.0 | 0.0 | 0.00 | 0.00 | 0.00 | 99 | 1022.8 |
| 20260510023003 | 54 | 66 | 0.0 | 0.0 | 0.00 | 0.00 | 0.00 | 99 | 1022.7 |
| 20260510022502 | 54 | 66 | 0.0 | 0.0 | 0.00 | 0.00 | 0.00 | 99 | 1023.0 |
| 20260510022002 | 54 | 66 | 0.0 | 0.0 | 0.00 | 0.00 | 0.00 | 99 | 1022.8 |
| 20260510021459 | 55 | 66 | 0.0 | 0.0 | 0.00 | 0.00 | 0.00 | 99 | 1022.9 |
| 20260510020956 | 55 | 66 | 0.0 | 0.0 | 0.00 | 0.00 | 0.00 | 99 | 1022.9 |
| 20260510020450 | 55 | 66 | 0.0 | 0.0 | 0.00 | 0.00 | 0.00 | 99 | 1022.6 |
| 20260510015946 | 55 | 66 | 0.0 | 0.0 | 0.00 | 0.00 | 0.00 | 99 | 1022.5 |
| 20260510015437 | 55 | 66 | 0.0 | 0.0 | 0.00 | 0.00 | 0.00 | 99 | 1022.4 |
| 20260510014932 | 55 | 66 | 0.0 | 0.0 | 0.00 | 0.00 | 0.00 | 99 | 1022.2 |
| 20260510014430 | 56 | 66 | 0.0 | 0.0 | 0.00 | 0.00 | 0.00 | 98 | 1022.2 |
| 20260510013926 | 56 | 66 | 0.0 | 0.0 | 0.00 | 0.00 | 0.00 | 98 | 1021.7 |
| 20260510013421 | 56 | 66 | 0.0 | 0.0 | 0.00 | 0.00 | 0.00 | 98 | 1021.9 |
| 20260510012916 | 57 | 66 | 0.0 | 0.0 | 0.00 | 0.00 | 0.00 | 97 | 1021.7 |
| 20260510012412 | 57 | 66 | 0.0 | 0.0 | 0.00 | 0.00 | 0.00 | 97 | 1021.5 |
| 20260510011907 | 57 | 66 | 0.0 | 0.0 | 0.00 | 0.00 | 0.00 | 97 | 1021.4 |
| 20260510011402 | 58 | 66 | 0.0 | 0.0 | 0.00 | 0.00 | 0.00 | 96 | 1021.4 |
| 20260510010858 | 58 | 66 | 0.0 | 0.0 | 0.00 | 0.00 | 0.00 | 96 | 1021.5 |
| 20260510010356 | 58 | 66 | 0.0 | 0.0 | 0.00 | 0.00 | 0.00 | 95 | 1021.2 |
| 20260510005852 | 58 | 66 | 0.0 | 0.0 | 0.00 | 0.00 | 0.00 | 95 | 1021.0 |
| 20260510005349 | 59 | 66 | 0.0 | 0.0 | 0.00 | 0.00 | 0.00 | 94 | 1021.1 |
| 20260510004846 | 59 | 66 | 0.0 | 0.0 | 0.00 | 0.00 | 0.00 | 94 | 1021.2 |
| 20260510004344 | 59 | 66 | 0.0 | 1.0 | 0.00 | 0.00 | 0.00 | 93 | 1021.1 |
| 20260510003842 | 60 | 66 | 0.0 | 0.0 | 0.00 | 0.00 | 0.00 | 92 | 1020.8 |
| 20260510003338 | 60 | 65 | 0.0 | 0.0 | 0.00 | 0.00 | 0.00 | 92 | 1021.0 |
| 20260510002837 | 60 | 64 | 0.0 | 1.0 | 0.00 | 0.00 | 0.00 | 92 | 1020.8 |
| 20260510002334 | 61 | 63 | 0.0 | 0.0 | 0.00 | 0.00 | 0.00 | 91 | 1020.8 |
| 20260510001831 | 61 | 63 | 0.0 | 0.0 | 0.00 | 0.00 | 0.00 | 90 | 1020.7 |
| 20260510001329 | 62 | 62 | 0.0 | 0.0 | 0.00 | 0.00 | 0.00 | 89 | 1020.7 |
| 20260510000825 | 62 | 63 | 0.0 | 0.0 | 0.00 | 0.00 | 0.00 | 88 | 1020.6 |
| 20260510000322 | 63 | 62 | 0.0 | 0.0 | 0.00 | 0.00 | 0.00 | 87 | 1020.7 |
| 20260509235819 | 63 | 62 | 0.0 | 0.0 | 0.00 | 0.00 | 0.00 | 86 | 1020.7 |
| 20260509235315 | 63 | 62 | 0.0 | 0.0 | 0.00 | 0.00 | 0.00 | 86 | 1020.3 |
| 20260509234811 | 63 | 62 | 0.0 | 0.0 | 0.00 | 0.00 | 0.00 | 85 | 1020.3 |
| 20260509234308 | 64 | 62 | 0.0 | 0.0 | 0.00 | 0.00 | 0.00 | 84 | 1020.5 |
| 20260509233807 | 65 | 62 | 0.0 | 0.0 | 0.00 | 0.00 | 0.00 | 83 | 1020.4 |
| 20260509233304 | 65 | 63 | 0.0 | 0.0 | 0.00 | 0.00 | 0.00 | 81 | 1020.3 |
| 20260509232759 | 66 | 62 | 0.0 | 0.0 | 0.00 | 0.00 | 0.00 | 80 | 1020.3 |
| 20260509232257 | 66 | 62 | 0.0 | 0.0 | 0.00 | 0.00 | 0.00 | 79 | 1020.2 |
| 20260509231753 | 67 | 58 | 0.0 | 0.0 | 0.00 | 0.00 | 0.00 | 78 | 1020.1 |
| 20260509231250 | 67 | 70 | 0.0 | 0.0 | 0.00 | 0.00 | 0.00 | 78 | 1020.3 |